| time (UTC) | temp F | wind direction | speed knots | gust knots | rain 1hr in | rain 24hr in | rain mn in | humidity % | barometer mb |
| 20260506211515 | 84 | 133 | 0.0 | 3.5 | 0.00 | 0.00 | 0.00 | 80 | 1006.7 |
| 20260506210016 | 83 | 159 | 1.7 | 6.1 | 0.00 | 0.00 | 0.00 | 82 | 1006.7 |
| 20260506204515 | 83 | 160 | 0.0 | 3.5 | 0.00 | 0.00 | 0.00 | 82 | 1006.8 |
| 20260506203014 | 84 | 164 | 0.9 | 5.2 | 0.00 | 0.00 | 0.00 | 81 | 1007.0 |
| 20260506201513 | 83 | 168 | 0.9 | 5.2 | 0.00 | 0.00 | 0.00 | 82 | 1007.3 |
| 20260506200015 | 83 | 133 | 0.9 | 3.5 | 0.00 | 0.00 | 0.00 | 82 | 1007.5 |
| 20260506194516 | 83 | 141 | 0.9 | 5.2 | 0.00 | 0.00 | 0.00 | 82 | 1007.5 |
| 20260506193010 | 83 | 137 | 1.7 | 5.2 | 0.00 | 0.00 | 0.00 | 83 | 1007.6 |
| 20260506191509 | 83 | 139 | 0.9 | 3.5 | 0.00 | 0.00 | 0.00 | 81 | 1007.9 |
| 20260506190008 | 83 | 183 | 0.9 | 4.3 | 0.00 | 0.00 | 0.00 | 82 | 1008.0 |
| 20260506184519 | 82 | 147 | 0.0 | 3.5 | 0.00 | 0.00 | 0.00 | 84 | 1008.2 |
| 20260506183007 | 82 | 164 | 0.9 | 3.5 | 0.00 | 0.00 | 0.00 | 84 | 1008.3 |
| 20260506181506 | 82 | 106 | 0.9 | 3.5 | 0.00 | 0.00 | 0.00 | 83 | 1008.6 |
| 20260506180007 | 82 | 129 | 0.0 | 5.2 | 0.00 | 0.00 | 0.00 | 83 | 1008.6 |
| 20260506174506 | 82 | 158 | 0.9 | 3.5 | 0.00 | 0.00 | 0.00 | 82 | 1008.6 |
| 20260506173005 | 82 | 177 | 0.9 | 3.5 | 0.00 | 0.00 | 0.00 | 83 | 1008.8 |
| 20260506171504 | 83 | 148 | 1.7 | 4.3 | 0.00 | 0.00 | 0.00 | 82 | 1008.9 |
| 20260506170000 | 81 | 204 | 0.9 | 3.5 | 0.00 | 0.00 | 0.00 | 85 | 1009.2 |
| 20260506164558 | 80 | 150 | 0.0 | 2.6 | 0.00 | 0.00 | 0.00 | 87 | 1009.1 |
| 20260506163056 | 80 | 148 | 0.0 | 3.5 | 0.00 | 0.00 | 0.00 | 89 | 1008.9 |
| 20260506161601 | 79 | 134 | 0.0 | 2.6 | 0.00 | 0.00 | 0.00 | 90 | 1008.9 |
| 20260506160051 | 79 | 140 | 0.0 | 2.6 | 0.00 | 0.00 | 0.00 | 90 | 1008.9 |
| 20260506154549 | 79 | 155 | 0.9 | 3.5 | 0.00 | 0.00 | 0.00 | 90 | 1008.7 |
| 20260506153047 | 79 | 112 | 0.9 | 2.6 | 0.00 | 0.00 | 0.00 | 91 | 1008.4 |
| 20260506151546 | 78 | 147 | 0.0 | 2.6 | 0.00 | 0.00 | 0.00 | 91 | 1008.3 |
| 20260506150055 | 78 | 122 | 0.9 | 5.2 | 0.00 | 0.00 | 0.00 | 91 | 1008.1 |
| 20260506144559 | 78 | 150 | 0.0 | 1.7 | 0.00 | 0.00 | 0.00 | 92 | 1007.9 |
| 20260506143050 | 78 | 167 | 0.0 | 3.5 | 0.00 | 0.00 | 0.00 | 91 | 1007.9 |
| 20260506141542 | 78 | 115 | 0.0 | 1.7 | 0.00 | 0.00 | 0.00 | 92 | 1008.1 |
| 20260506140057 | 78 | 153 | 0.0 | 1.7 | 0.00 | 0.00 | 0.00 | 92 | 1008.2 |
| 20260506134540 | 78 | 186 | 0.0 | 3.5 | 0.00 | 0.00 | 0.00 | 93 | 1008.0 |
| 20260506133038 | 77 | 134 | 0.0 | 1.7 | 0.00 | 0.00 | 0.00 | 93 | 1008.2 |
| 20260506131543 | 77 | 165 | 0.0 | 0.9 | 0.00 | 0.00 | 0.00 | 93 | 1008.3 |
| 20260506130050 | 76 | 163 | 0.0 | 1.7 | 0.00 | 0.00 | 0.00 | 93 | 1008.2 |
| 20260506124536 | 76 | 136 | 0.0 | 3.5 | 0.00 | 0.00 | 0.00 | 94 | 1008.1 |
| 20260506123040 | 76 | 136 | 0.0 | 1.7 | 0.00 | 0.00 | 0.00 | 94 | 1008.0 |
| 20260506121534 | 76 | 184 | 0.0 | 2.6 | 0.00 | 0.00 | 0.00 | 94 | 1007.8 |
| 20260506120034 | 76 | 153 | 0.0 | 0.9 | 0.00 | 0.00 | 0.00 | 94 | 1007.6 |
| 20260506114533 | 75 | 160 | 0.0 | 1.7 | 0.00 | 0.00 | 0.00 | 94 | 1007.4 |
| 20260506113036 | 75 | 140 | 0.9 | 3.5 | 0.00 | 0.00 | 0.00 | 94 | 1007.2 |
| 20260506111533 | 75 | 164 | 0.0 | 2.6 | 0.00 | 0.00 | 0.00 | 94 | 1007.0 |
| 20260506110040 | 75 | 128 | 0.0 | 1.7 | 0.00 | 0.00 | 0.00 | 94 | 1006.9 |
| 20260506104532 | 75 | 146 | 0.0 | 1.7 | 0.00 | 0.00 | 0.00 | 94 | 1007.1 |
| 20260506103030 | 75 | 176 | 0.0 | 0.9 | 0.00 | 0.00 | 0.00 | 94 | 1007.1 |
| 20260506101533 | 75 | 139 | 0.0 | 1.7 | 0.00 | 0.00 | 0.00 | 94 | 1006.9 |
| 20260506100029 | 75 | 105 | 0.0 | 0.9 | 0.00 | 0.00 | 0.00 | 93 | 1006.8 |
| 20260506094528 | 75 | 148 | 0.0 | 0.9 | 0.00 | 0.00 | 0.00 | 94 | 1006.7 |
| 20260506093032 | 75 | 159 | 0.0 | 0.9 | 0.00 | 0.00 | 0.00 | 93 | 1006.9 |
| 20260506091526 | 76 | 120 | 0.0 | 0.9 | 0.00 | 0.00 | 0.00 | 93 | 1006.9 |
| 20260506090024 | 76 | 157 | 0.0 | 3.5 | 0.00 | 0.00 | 0.00 | 92 | 1006.8 |
| 20260506084523 | 76 | 168 | 0.0 | 2.6 | 0.00 | 0.00 | 0.00 | 92 | 1007.0 |
| 20260506083028 | 76 | 185 | 0.0 | 2.6 | 0.00 | 0.00 | 0.00 | 92 | 1007.1 |
| 20260506081520 | 76 | 78 | 0.0 | 2.6 | 0.00 | 0.00 | 0.00 | 92 | 1007.2 |
| 20260506073014 | 76 | 201 | 0.0 | 2.6 | 0.00 | 0.00 | 0.00 | 91 | 1007.8 |
| 20260506071512 | 76 | 143 | 0.0 | 1.7 | 0.00 | 0.00 | 0.00 | 91 | 1007.9 |
| 20260506061510 | 76 | 136 | 0.9 | 6.1 | 0.00 | 0.00 | 0.00 | 91 | 1007.8 |
| 20260506044506 | 77 | 133 | 0.0 | 4.3 | 0.00 | 0.00 | 0.00 | 90 | 1007.9 |
| 20260506043005 | 77 | 160 | 0.9 | 4.3 | 0.00 | 0.00 | 0.00 | 90 | 1007.8 |
| 20260506041502 | 77 | 148 | 0.9 | 6.1 | 0.00 | 0.00 | 0.00 | 90 | 1007.8 |
| 20260506040002 | 77 | 181 | 0.9 | 5.2 | 0.00 | 0.00 | 0.00 | 90 | 1007.7 |
| 20260506034503 | 77 | 169 | 1.7 | 4.3 | 0.00 | 0.00 | 0.00 | 90 | 1007.7 |
| 20260506033100 | 77 | 136 | 0.9 | 5.2 | 0.00 | 0.00 | 0.00 | 90 | 1007.6 |
| 20260506031610 | 77 | 137 | 0.9 | 3.5 | 0.00 | 0.00 | 0.00 | 90 | 1007.5 |
| 20260506030059 | 76 | 172 | 0.0 | 2.6 | 0.00 | 0.00 | 0.00 | 90 | 1007.5 |
| 20260506024602 | 76 | 183 | 0.0 | 3.5 | 0.00 | 0.00 | 0.00 | 90 | 1007.3 |
| 20260506023105 | 76 | 79 | 0.0 | 3.5 | 0.00 | 0.00 | 0.00 | 90 | 1006.9 |
| 20260506021557 | 76 | 83 | 0.9 | 3.5 | 0.00 | 0.00 | 0.00 | 90 | 1006.7 |
| 20260506020058 | 76 | 140 | 0.9 | 4.3 | 0.00 | 0.00 | 0.00 | 90 | 1006.5 |
| 20260506014557 | 77 | 139 | 0.9 | 4.3 | 0.00 | 0.00 | 0.00 | 89 | 1006.4 |
| 20260506013108 | 77 | 127 | 0.9 | 3.5 | 0.00 | 0.00 | 0.00 | 88 | 1006.3 |
| 20260506011559 | 77 | 108 | 0.0 | 4.3 | 0.00 | 0.00 | 0.00 | 87 | 1006.1 |
| 20260506010118 | 78 | 144 | 1.7 | 7.0 | 0.00 | 0.00 | 0.00 | 87 | 1005.9 |
| 20260506004554 | 78 | 145 | 0.9 | 4.3 | 0.00 | 0.00 | 0.00 | 86 | 1005.7 |
| 20260506003101 | 78 | 153 | 0.9 | 3.5 | 0.00 | 0.00 | 0.00 | 86 | 1005.7 |
| 20260506001601 | 78 | 120 | 0.9 | 5.2 | 0.00 | 0.00 | 0.00 | 85 | 1005.6 |
| 20260506000054 | 78 | 105 | 0.0 | 6.1 | 0.00 | 0.00 | 0.00 | 85 | 1005.7 |
| 20260505234553 | 79 | 97 | 1.7 | 5.2 | 0.00 | 0.00 | 0.00 | 84 | 1005.6 |
| 20260505233104 | 79 | 122 | 0.9 | 5.2 | 0.00 | 0.00 | 0.00 | 84 | 1005.7 |
| 20260505231551 | 79 | 150 | 1.7 | 7.8 | 0.00 | 0.00 | 0.00 | 83 | 1005.7 |
| 20260505230055 | 79 | 108 | 1.7 | 7.8 | 0.00 | 0.00 | 0.00 | 82 | 1005.8 |
| 20260505224551 | 80 | 258 | 0.9 | 5.2 | 0.00 | 0.00 | 0.00 | 82 | 1005.6 |
| 20260505223049 | 80 | 232 | 0.9 | 7.0 | 0.00 | 0.00 | 0.00 | 82 | 1005.7 |
| 20260505221549 | 80 | 127 | 0.9 | 7.8 | 0.00 | 0.00 | 0.00 | 83 | 1005.8 |
| 20260505220046 | 79 | 91 | 0.9 | 7.8 | 0.00 | 0.00 | 0.00 | 84 | 1005.9 |
| 20260505214550 | 79 | 122 | 1.7 | 7.0 | 0.00 | 0.00 | 0.00 | 84 | 1006.2 |
| 20260505213047 | 80 | 232 | 1.7 | 6.1 | 0.00 | 0.00 | 0.00 | 83 | 1006.2 |